Location: Oberkirch
(48.5323°N, 8.0787°E)
Time: 21:30:28
(UTC+00:00)

Tiros 1 - Pass Details

Date: 19 February 2026
Orbit: 618 x 649 km, 48.4° (Epoch: 9 March)

Event Time Altitude Azimuth Distance (km) Brightness Sun altitude
Rises 13:48:44 0° 282° (WNW) 2,892 10.8 24.0°
Reaches altitude 10° 13:51:33 10° 265° (W) 1,981 10.3 23.8°
Maximum altitude 13:54:48 19° 219° (SW) 1,455 12.2 23.5°
Drops below altitude 10° 13:58:02 10° 173° (S) 1,973 10.5 23.1°
Sets 14:00:51 0° 156° (SSE) 2,876 10.9 22.9°
